Location: Dürabuch
(48.2640°N, 11.2185°E)
Time: 08:48:30
(UTC+00:00)

ALOS - Pass Details

Date: 23 May 2024
Orbit: 673 x 676 km, 98.0° (Epoch: 15 June)

Event Time Altitude Azimuth Distance (km) Brightness Sun altitude
Rises 01:21:12 0° 22° (NNE) 3,038 7.4 -15.3°
Reaches altitude 10° 01:23:40 10° 32° (NNE) 2,118 6.2 -15.1°
Maximum altitude 01:27:47 31° 95° (E) 1,176 3.7 -14.7°
Drops below altitude 10° 01:31:53 10° 158° (SSE) 2,101 4.4 -14.3°
Enters shadow 01:32:25 - 161° (SSE) 2,295 4.6 -14.3°
